Time,TemperatureF,DewpointF,PressureIn,WindDirection,WindDirectionDegrees,WindSpeedMPH,WindSpeedGustMPH,Humidity,HourlyPrecipIn,Conditions,Clouds,dailyrainin,SoftwareType,DateUTC
2013-02-21 00:01:00,19.9,16.4,29.93,NNE,22,2.0,2.0,86,0.00,,---,0.00,VWS V14.00,2013-02-21 07:01:00,
2013-02-21 00:07:00,19.9,16.4,29.90,NNE,23,0.0,0.0,86,0.00,,---,0.00,VWS V14.00,2013-02-21 07:07:00,
2013-02-21 00:12:00,19.9,16.4,29.90,NNE,22,0.0,0.0,86,0.00,,---,0.00,VWS V14.00,2013-02-21 07:12:00,
2013-02-21 00:19:00,19.9,16.4,29.90,NNE,22,0.0,0.0,86,0.00,,---,0.00,VWS V14.00,2013-02-21 07:19:00,
2013-02-21 00:24:00,19.9,16.4,29.90,NNE,22,0.0,1.0,86,0.00,,---,0.00,VWS V14.00,2013-02-21 07:24:00,
2013-02-21 00:29:00,19.8,16.3,29.90,NNE,23,0.0,1.0,86,0.00,,---,0.00,VWS V14.00,2013-02-21 07:29:00,
2013-02-21 00:34:00,19.7,16.2,29.90,NNE,23,0.0,1.0,86,0.00,,---,0.00,VWS V14.00,2013-02-21 07:34:00,
2013-02-21 00:39:00,19.7,16.2,29.90,NNE,23,0.0,0.0,86,0.00,,---,0.00,VWS V14.00,2013-02-21 07:39:00,
2013-02-21 00:44:00,19.7,16.2,29.90,NNE,23,0.0,0.0,86,0.00,,---,0.00,VWS V14.00,2013-02-21 07:44:00,
2013-02-21 00:49:00,19.7,16.2,29.90,NNE,23,1.0,3.0,86,0.00,,---,0.00,VWS V14.00,2013-02-21 07:49:00,
2013-02-21 00:54:00,19.5,16.0,29.90,NNE,22,0.0,1.0,86,0.00,,---,0.00,VWS V14.00,2013-02-21 07:54:00,
2013-02-21 00:59:00,19.4,15.9,29.91,NNE,22,0.0,0.0,86,0.00,,---,0.00,VWS V14.00,2013-02-21 07:59:00,
2013-02-21 01:04:00,19.3,15.8,29.91,NNE,23,3.0,3.0,86,0.00,,---,0.00,VWS V14.00,2013-02-21 08:04:00,
2013-02-21 01:09:00,19.0,15.5,29.91,NNE,20,1.0,1.0,86,0.00,,---,0.00,VWS V14.00,2013-02-21 08:09:00,
2013-02-21 01:14:00,18.8,15.3,29.92,NNE,20,2.0,3.0,86,0.00,,---,0.00,VWS V14.00,2013-02-21 08:14:00,
2013-02-21 01:19:00,18.6,15.1,29.92,NNE,19,3.0,4.0,86,0.00,,---,0.00,VWS V14.00,2013-02-21 08:19:00,
2013-02-21 01:24:00,18.4,14.9,29.92,NNE,20,2.0,2.0,86,0.00,,---,0.00,VWS V14.00,2013-02-21 08:24:00,
2013-02-21 01:29:00,18.4,14.9,29.92,NNE,20,0.0,1.0,86,0.00,,---,0.00,VWS V14.00,2013-02-21 08:29:00,
2013-02-21 01:34:00,18.1,14.4,29.92,NNE,22,3.0,5.0,85,0.00,,---,0.00,VWS V14.00,2013-02-21 08:34:00,
2013-02-21 01:39:00,17.9,14.4,29.92,NNE,22,0.0,0.0,86,0.00,,---,0.00,VWS V14.00,2013-02-21 08:39:00,
2013-02-21 01:44:00,17.7,14.0,29.92,North,9,0.0,4.0,85,0.00,,---,0.00,VWS V14.00,2013-02-21 08:44:00,
2013-02-21 01:49:00,17.5,13.8,29.92,North,10,0.0,2.0,85,0.00,,---,0.00,VWS V14.00,2013-02-21 08:49:00,
2013-02-21 01:54:00,17.3,13.6,29.93,NNE,33,2.0,3.0,85,0.00,,---,0.00,VWS V14.00,2013-02-21 08:54:00,
2013-02-21 01:59:00,17.1,13.4,29.93,NE,34,0.0,2.0,85,0.00,,---,0.00,VWS V14.00,2013-02-21 08:59:00,
2013-02-21 02:05:00,17.1,13.6,29.94,NNE,32,2.0,4.0,86,0.00,,---,0.00,VWS V14.00,2013-02-21 09:05:00,
2013-02-21 02:10:00,17.0,13.3,29.94,NNE,32,0.0,3.0,85,0.00,,---,0.00,VWS V14.00,2013-02-21 09:10:00,
2013-02-21 02:15:00,16.9,13.2,29.94,NNE,30,0.0,4.0,85,0.00,,---,0.00,VWS V14.00,2013-02-21 09:15:00,
2013-02-21 02:20:00,16.7,13.0,29.94,NNE,31,1.0,4.0,85,0.00,,---,0.00,VWS V14.00,2013-02-21 09:20:00,
2013-02-21 02:25:00,16.6,12.9,29.94,NNE,31,0.0,0.0,85,0.00,,---,0.00,VWS V14.00,2013-02-21 09:25:00,
2013-02-21 02:30:00,16.5,12.8,29.93,NNE,31,0.0,0.0,85,0.00,,---,0.00,VWS V14.00,2013-02-21 09:30:00,
2013-02-21 02:35:00,16.5,12.8,29.93,NNE,30,0.0,2.0,85,0.00,,---,0.00,VWS V14.00,2013-02-21 09:35:00,
2013-02-21 02:40:00,16.4,12.7,29.94,NNE,31,0.0,1.0,85,0.00,,---,0.00,VWS V14.00,2013-02-21 09:40:00,
2013-02-21 02:45:00,16.3,12.6,29.94,NNE,31,0.0,0.0,85,0.00,,---,0.00,VWS V14.00,2013-02-21 09:45:00,
2013-02-21 02:50:00,16.3,12.6,29.94,NNE,30,1.0,2.0,85,0.00,,---,0.00,VWS V14.00,2013-02-21 09:50:00,
2013-02-21 02:55:00,16.2,12.5,29.94,NNE,30,0.0,2.0,85,0.00,,---,0.00,VWS V14.00,2013-02-21 09:55:00,
2013-02-21 03:01:00,16.0,12.3,29.94,NNE,31,1.0,1.0,85,0.00,,---,0.00,VWS V14.00,2013-02-21 10:01:00,
2013-02-21 03:06:00,15.9,12.2,29.96,NNE,31,1.0,2.0,85,0.00,,---,0.00,VWS V14.00,2013-02-21 10:06:00,
2013-02-21 03:11:00,15.8,12.1,29.96,NNE,31,0.0,1.0,85,0.00,,---,0.00,VWS V14.00,2013-02-21 10:11:00,
2013-02-21 03:16:00,15.6,11.9,29.95,NNE,30,0.0,0.0,85,0.00,,---,0.00,VWS V14.00,2013-02-21 10:16:00,
2013-02-21 03:21:00,15.5,11.8,29.96,NNE,31,0.0,3.0,85,0.00,,---,0.00,VWS V14.00,2013-02-21 10:21:00,
2013-02-21 03:26:00,15.5,11.8,29.96,NNE,31,0.0,0.0,85,0.00,,---,0.00,VWS V14.00,2013-02-21 10:26:00,
2013-02-21 03:31:00,15.5,11.8,29.96,NNE,30,0.0,0.0,85,0.00,,---,0.00,VWS V14.00,2013-02-21 10:31:00,
2013-02-21 03:36:00,15.5,11.8,29.96,NNE,30,0.0,0.0,85,0.00,,---,0.00,VWS V14.00,2013-02-21 10:36:00,
2013-02-21 03:41:00,15.5,11.8,29.96,NNE,31,0.0,1.0,85,0.00,,---,0.00,VWS V14.00,2013-02-21 10:41:00,
2013-02-21 03:46:00,15.5,11.8,29.97,NNE,31,0.0,1.0,85,0.00,,---,0.00,VWS V14.00,2013-02-21 10:46:00,
2013-02-21 03:51:00,15.5,11.8,29.97,NNE,30,0.0,0.0,85,0.00,,---,0.00,VWS V14.00,2013-02-21 10:51:00,
2013-02-21 03:56:00,15.6,11.9,29.97,NNE,31,0.0,0.0,85,0.00,,---,0.00,VWS V14.00,2013-02-21 10:56:00,
2013-02-21 04:01:00,15.7,12.0,29.97,NNE,31,0.0,2.0,85,0.00,,---,0.00,VWS V14.00,2013-02-21 11:01:00,
2013-02-21 04:06:00,15.7,12.0,29.98,NNE,30,0.0,1.0,85,0.00,,---,0.00,VWS V14.00,2013-02-21 11:06:00,
2013-02-21 04:11:00,15.7,12.0,29.98,NNE,30,1.0,1.0,85,0.00,,---,0.00,VWS V14.00,2013-02-21 11:11:00,
2013-02-21 04:16:00,15.7,12.0,29.98,NNE,30,0.0,0.0,85,0.00,,---,0.00,VWS V14.00,2013-02-21 11:16:00,
2013-02-21 04:21:00,15.8,12.1,29.98,NNE,31,0.0,2.0,85,0.00,,---,0.00,VWS V14.00,2013-02-21 11:21:00,
2013-02-21 04:26:00,15.8,12.1,29.98,NNE,31,0.0,0.0,85,0.00,,---,0.00,VWS V14.00,2013-02-21 11:26:00,
2013-02-21 04:31:00,15.8,12.1,29.98,NNE,30,0.0,0.0,85,0.00,,---,0.00,VWS V14.00,2013-02-21 11:31:00,
2013-02-21 04:36:00,15.9,12.2,29.99,NNE,31,0.0,0.0,85,0.00,,---,0.00,VWS V14.00,2013-02-21 11:36:00,
2013-02-21 04:41:00,15.9,12.2,29.99,NNE,31,0.0,0.0,85,0.00,,---,0.00,VWS V14.00,2013-02-21 11:41:00,
2013-02-21 04:46:00,15.9,12.2,29.99,NNE,31,0.0,1.0,85,0.00,,---,0.00,VWS V14.00,2013-02-21 11:46:00,
2013-02-21 04:51:00,15.9,12.2,29.99,NNE,30,0.0,2.0,85,0.00,,---,0.00,VWS V14.00,2013-02-21 11:51:00,
2013-02-21 04:56:00,15.9,12.2,29.99,NNE,31,0.0,0.0,85,0.00,,---,0.00,VWS V14.00,2013-02-21 11:56:00,
2013-02-21 05:01:00,15.9,12.2,30.00,NNE,31,2.0,2.0,85,0.00,,---,0.00,VWS V14.00,2013-02-21 12:01:00,
2013-02-21 05:06:00,15.9,12.2,30.01,NNE,30,0.0,1.0,85,0.00,,---,0.00,VWS V14.00,2013-02-21 12:06:00,
2013-02-21 05:11:00,15.9,12.2,30.01,NNE,31,4.0,4.0,85,0.00,,---,0.00,VWS V14.00,2013-02-21 12:11:00,
2013-02-21 05:16:00,15.8,12.1,30.01,NNE,31,0.0,1.0,85,0.00,,---,0.00,VWS V14.00,2013-02-21 12:16:00,
2013-02-21 05:21:00,15.7,12.0,30.01,NNE,31,0.0,0.0,85,0.00,,---,0.00,VWS V14.00,2013-02-21 12:21:00,
2013-02-21 05:26:00,15.7,12.0,30.01,NNE,30,0.0,0.0,85,0.00,,---,0.00,VWS V14.00,2013-02-21 12:26:00,
2013-02-21 05:31:00,15.7,12.0,30.01,NNE,31,0.0,0.0,85,0.00,,---,0.00,VWS V14.00,2013-02-21 12:31:00,
2013-02-21 05:36:00,15.6,11.9,30.01,NNE,31,0.0,0.0,85,0.00,,---,0.00,VWS V14.00,2013-02-21 12:36:00,
2013-02-21 05:41:00,15.5,11.8,30.01,NNE,30,0.0,0.0,85,0.00,,---,0.00,VWS V14.00,2013-02-21 12:41:00,
2013-02-21 05:46:00,15.5,11.8,30.02,NNE,30,0.0,1.0,85,0.00,,---,0.00,VWS V14.00,2013-02-21 12:46:00,
2013-02-21 05:51:00,15.5,11.8,30.02,NNE,31,0.0,0.0,85,0.00,,---,0.00,VWS V14.00,2013-02-21 12:51:00,
2013-02-21 05:56:00,15.5,11.8,30.02,NNE,31,1.0,1.0,85,0.00,,---,0.00,VWS V14.00,2013-02-21 12:56:00,
2013-02-21 06:01:00,15.5,11.8,30.02,NNE,30,0.0,0.0,85,0.00,,---,0.00,VWS V14.00,2013-02-21 13:01:00,
2013-02-21 06:06:00,15.5,11.8,30.04,NNE,31,0.0,0.0,85,0.00,,---,0.00,VWS V14.00,2013-02-21 13:06:00,
2013-02-21 06:11:00,15.4,11.7,30.04,NNE,31,0.0,1.0,85,0.00,,---,0.00,VWS V14.00,2013-02-21 13:11:00,
2013-02-21 06:16:00,15.4,11.7,30.04,NNE,30,0.0,0.0,85,0.00,,---,0.00,VWS V14.00,2013-02-21 13:16:00,
2013-02-21 06:21:00,15.3,11.6,30.04,NNE,30,0.0,0.0,85,0.00,,---,0.00,VWS V14.00,2013-02-21 13:21:00,
2013-02-21 06:26:00,15.3,11.6,30.05,NNE,31,0.0,0.0,85,0.00,,---,0.00,VWS V14.00,2013-02-21 13:26:00,
2013-02-21 06:31:00,15.2,11.5,30.05,NNE,31,0.0,0.0,85,0.00,,---,0.00,VWS V14.00,2013-02-21 13:31:00,
2013-02-21 06:36:00,15.2,11.5,30.05,NNE,31,0.0,0.0,85,0.00,,---,0.00,VWS V14.00,2013-02-21 13:36:00,
2013-02-21 06:41:00,15.1,11.4,30.05,NNE,30,0.0,0.0,85,0.00,,---,0.00,VWS V14.00,2013-02-21 13:41:00,
2013-02-21 06:46:00,15.0,11.3,30.05,NNE,31,0.0,0.0,85,0.00,,---,0.00,VWS V14.00,2013-02-21 13:46:00,
2013-02-21 06:51:00,15.0,11.3,30.05,NNE,31,0.0,0.0,85,0.00,,---,0.00,VWS V14.00,2013-02-21 13:51:00,
2013-02-21 06:56:00,15.0,11.3,30.06,NNE,30,0.0,0.0,85,0.00,,---,0.00,VWS V14.00,2013-02-21 13:56:00,
2013-02-21 07:01:00,15.0,11.3,30.06,NNE,31,0.0,0.0,85,0.00,,---,0.00,VWS V14.00,2013-02-21 14:01:00,
2013-02-21 07:06:00,15.1,11.4,30.07,NNE,31,0.0,0.0,85,0.00,,---,0.00,VWS V14.00,2013-02-21 14:06:00,
2013-02-21 07:12:00,15.2,11.5,30.07,NNE,31,0.0,0.0,85,0.00,,---,0.00,VWS V14.00,2013-02-21 14:12:00,
2013-02-21 07:17:00,15.2,11.5,30.08,NNE,31,0.0,0.0,85,0.00,,---,0.00,VWS V14.00,2013-02-21 14:17:00,
2013-02-21 07:22:00,15.3,11.6,30.08,NNE,30,0.0,0.0,85,0.00,,---,0.00,VWS V14.00,2013-02-21 14:22:00,
2013-02-21 07:28:00,15.5,11.8,30.08,NNE,30,0.0,0.0,85,0.00,,---,0.00,VWS V14.00,2013-02-21 14:28:00,
2013-02-21 07:33:00,15.6,11.9,30.08,NNE,31,0.0,0.0,85,0.00,,---,0.00,VWS V14.00,2013-02-21 14:33:00,
2013-02-21 07:38:00,15.8,12.1,30.09,NNE,30,0.0,0.0,85,0.00,,---,0.00,VWS V14.00,2013-02-21 14:38:00,
2013-02-21 07:43:00,15.9,12.2,30.09,NNE,30,0.0,1.0,85,0.00,,---,0.00,VWS V14.00,2013-02-21 14:43:00,
2013-02-21 07:48:00,16.1,12.4,30.09,NNE,30,0.0,2.0,85,0.00,,---,0.00,VWS V14.00,2013-02-21 14:48:00,
2013-02-21 07:53:00,16.2,12.5,30.09,NNE,31,0.0,0.0,85,0.00,,---,0.00,VWS V14.00,2013-02-21 14:53:00,
2013-02-21 07:59:00,16.5,12.8,30.09,NNE,31,0.0,2.0,85,0.00,,---,0.00,VWS V14.00,2013-02-21 14:59:00,
2013-02-21 08:04:00,16.7,13.2,30.09,NNE,31,0.0,0.0,86,0.00,,---,0.00,VWS V14.00,2013-02-21 15:04:00,
2013-02-21 08:10:00,17.2,13.5,30.09,NNE,31,0.0,0.0,85,0.00,,---,0.00,VWS V14.00,2013-02-21 15:10:00,